| time (UTC) | temp F | wind direction | speed knots | gust knots | rain 1hr in | rain 24hr in | rain mn in | humidity % | barometer mb |
| 20260503210721 | 63 | 155 | 1.7 | 2.6 | 0.00 | 0.00 | 0.00 | 66 | 1019.7 |
| 20260503210219 | 63 | 201 | 1.7 | 1.7 | 0.00 | 0.00 | 0.00 | 66 | 1019.8 |
| 20260503205714 | 63 | 166 | 0.0 | 0.0 | 0.00 | 0.00 | 0.00 | 68 | 1019.7 |
| 20260503205210 | 61 | 152 | 0.9 | 1.7 | 0.00 | 0.00 | 0.00 | 70 | 1019.7 |
| 20260503204707 | 60 | 258 | 2.6 | 2.6 | 0.00 | 0.00 | 0.00 | 70 | 1019.7 |
| 20260503204205 | 62 | 242 | 3.5 | 3.5 | 0.00 | 0.00 | 0.00 | 68 | 1019.9 |
| 20260503203702 | 62 | 125 | 0.0 | 0.9 | 0.00 | 0.00 | 0.00 | 69 | 1019.9 |
| 20260503203200 | 62 | 132 | 0.9 | 0.9 | 0.00 | 0.00 | 0.00 | 70 | 1019.9 |
| 20260503202656 | 61 | 103 | 0.9 | 1.7 | 0.00 | 0.00 | 0.00 | 71 | 1020.2 |
| 20260503202154 | 61 | 46 | 0.9 | 0.9 | 0.00 | 0.00 | 0.00 | 71 | 1019.9 |
| 20260503201652 | 61 | 164 | 2.6 | 3.5 | 0.00 | 0.00 | 0.00 | 71 | 1019.8 |
| 20260503201149 | 61 | 185 | 2.6 | 3.5 | 0.00 | 0.00 | 0.00 | 71 | 1020.0 |
| 20260503200645 | 60 | 234 | 2.6 | 2.6 | 0.00 | 0.00 | 0.00 | 72 | 1020.1 |
| 20260503200142 | 61 | 85 | 0.9 | 1.7 | 0.00 | 0.00 | 0.00 | 71 | 1019.8 |
| 20260503195639 | 62 | 223 | 2.6 | 3.5 | 0.00 | 0.00 | 0.00 | 70 | 1020.1 |
| 20260503195136 | 63 | 119 | 0.0 | 0.0 | 0.00 | 0.00 | 0.00 | 67 | 1019.9 |
| 20260503194633 | 63 | 204 | 0.9 | 1.7 | 0.00 | 0.00 | 0.00 | 68 | 1019.9 |
| 20260503194127 | 62 | 138 | 0.9 | 0.9 | 0.00 | 0.00 | 0.00 | 66 | 1020.0 |
| 20260503193620 | 61 | 112 | 0.9 | 0.9 | 0.00 | 0.00 | 0.00 | 70 | 1020.1 |
| 20260503193115 | 61 | 168 | 1.7 | 1.7 | 0.00 | 0.00 | 0.00 | 69 | 1019.9 |
| 20260503192611 | 61 | 285 | 3.5 | 3.5 | 0.00 | 0.00 | 0.00 | 69 | 1020.1 |
| 20260503192106 | 63 | 168 | 0.9 | 1.7 | 0.00 | 0.00 | 0.00 | 67 | 1020.1 |
| 20260503191604 | 63 | 206 | 0.0 | 0.0 | 0.00 | 0.00 | 0.00 | 68 | 1020.0 |
| 20260503191100 | 63 | 125 | 0.9 | 0.9 | 0.00 | 0.00 | 0.00 | 66 | 1020.0 |
| 20260503190557 | 63 | 117 | 0.0 | 0.0 | 0.00 | 0.00 | 0.00 | 68 | 1020.0 |
| 20260503190054 | 63 | 124 | 0.0 | 0.9 | 0.00 | 0.00 | 0.00 | 67 | 1020.1 |
| 20260503185551 | 62 | 88 | 0.0 | 0.0 | 0.00 | 0.00 | 0.00 | 68 | 1020.0 |
| 20260503185050 | 60 | 210 | 3.5 | 5.2 | 0.00 | 0.00 | 0.00 | 69 | 1020.1 |
| 20260503184546 | 60 | 121 | 0.9 | 0.9 | 0.00 | 0.00 | 0.00 | 70 | 1020.2 |
| 20260503184043 | 61 | 177 | 0.9 | 1.7 | 0.00 | 0.00 | 0.00 | 68 | 1020.0 |
| 20260503183540 | 62 | 153 | 0.9 | 0.9 | 0.00 | 0.00 | 0.00 | 69 | 1020.2 |
| 20260503183037 | 61 | 124 | 0.0 | 0.9 | 0.00 | 0.00 | 0.00 | 68 | 1020.2 |
| 20260503182536 | 61 | 107 | 0.0 | 0.0 | 0.00 | 0.00 | 0.00 | 70 | 1020.1 |
| 20260503182033 | 60 | 250 | 0.9 | 1.7 | 0.00 | 0.00 | 0.00 | 71 | 1020.2 |
| 20260503181530 | 59 | 80 | 0.0 | 0.9 | 0.00 | 0.00 | 0.00 | 73 | 1020.1 |
| 20260503181026 | 60 | 255 | 2.6 | 2.6 | 0.00 | 0.00 | 0.00 | 71 | 1020.0 |
| 20260503180524 | 60 | 130 | 0.0 | 0.9 | 0.00 | 0.00 | 0.00 | 72 | 1020.1 |
| 20260503180021 | 59 | 159 | 0.9 | 1.7 | 0.00 | 0.00 | 0.00 | 73 | 1020.3 |
| 20260503175518 | 60 | 221 | 1.7 | 1.7 | 0.00 | 0.00 | 0.00 | 72 | 1020.3 |
| 20260503175015 | 59 | 205 | 2.6 | 2.6 | 0.00 | 0.00 | 0.00 | 76 | 1019.8 |
| 20260503174513 | 59 | 69 | 1.7 | 1.7 | 0.00 | 0.00 | 0.00 | 76 | 1020.1 |
| 20260503174008 | 59 | 172 | 0.9 | 1.7 | 0.00 | 0.00 | 0.00 | 74 | 1019.9 |
| 20260503173504 | 58 | 187 | 1.7 | 1.7 | 0.00 | 0.00 | 0.00 | 77 | 1019.8 |
| 20260503173000 | 59 | 154 | 0.9 | 1.7 | 0.00 | 0.00 | 0.00 | 76 | 1020.0 |
| 20260503172458 | 59 | 233 | 4.3 | 6.1 | 0.00 | 0.00 | 0.00 | 76 | 1020.0 |
| 20260503171955 | 58 | 110 | 0.0 | 0.9 | 0.00 | 0.00 | 0.00 | 76 | 1019.9 |
| 20260503171451 | 58 | 85 | 0.9 | 0.9 | 0.00 | 0.00 | 0.00 | 76 | 1020.1 |
| 20260503170949 | 58 | 165 | 0.0 | 0.0 | 0.00 | 0.00 | 0.00 | 78 | 1020.2 |
| 20260503170445 | 57 | 177 | 0.0 | 1.7 | 0.00 | 0.00 | 0.00 | 79 | 1020.2 |
| 20260503150837 | 55 | 99 | 0.0 | 0.0 | 0.00 | 0.00 | 0.00 | 88 | 1019.6 |
| 20260503150333 | 55 | 98 | 0.0 | 0.0 | 0.00 | 0.00 | 0.00 | 88 | 1019.6 |
| 20260503140257 | 53 | 125 | 0.0 | 0.0 | 0.00 | 0.00 | 0.00 | 90 | 1018.9 |
| 20260503131227 | 53 | 124 | 0.0 | 0.0 | 0.00 | 0.00 | 0.00 | 90 | 1018.6 |
| 20260503130725 | 53 | 124 | 0.0 | 0.0 | 0.00 | 0.00 | 0.00 | 90 | 1018.1 |
| 20260503130222 | 53 | 124 | 0.0 | 0.0 | 0.00 | 0.00 | 0.00 | 90 | 1018.1 |
| 20260503120148 | 53 | 136 | 0.0 | 0.0 | 0.00 | 0.00 | 0.00 | 91 | 1018.2 |
| 20260503110615 | 53 | 75 | 0.0 | 0.0 | 0.00 | 0.00 | 0.00 | 90 | 1018.2 |
| 20260503110113 | 53 | 109 | 0.0 | 0.0 | 0.00 | 0.00 | 0.00 | 90 | 1018.1 |
| 20260503090502 | 53 | 103 | 0.0 | 0.0 | 0.00 | 0.00 | 0.00 | 90 | 1018.4 |
| 20260503081428 | 53 | 122 | 0.0 | 0.0 | 0.00 | 0.00 | 0.00 | 88 | 1019.1 |
| 20260503080926 | 53 | 126 | 0.0 | 0.0 | 0.00 | 0.00 | 0.00 | 88 | 1019.1 |
| 20260503080422 | 53 | 116 | 0.0 | 0.0 | 0.00 | 0.00 | 0.00 | 88 | 1019.1 |
| 20260503072858 | 53 | 130 | 0.0 | 0.0 | 0.00 | 0.00 | 0.00 | 89 | 1019.4 |
| 20260503072355 | 53 | 131 | 0.0 | 0.0 | 0.00 | 0.00 | 0.00 | 89 | 1019.1 |
| 20260503071851 | 53 | 123 | 0.0 | 0.0 | 0.00 | 0.00 | 0.00 | 89 | 1019.1 |
| 20260503071349 | 53 | 111 | 0.0 | 0.0 | 0.00 | 0.00 | 0.00 | 89 | 1019.1 |
| 20260503070844 | 53 | 162 | 0.9 | 0.9 | 0.00 | 0.00 | 0.00 | 89 | 1019.4 |
| 20260503070338 | 53 | 148 | 0.0 | 0.9 | 0.00 | 0.00 | 0.00 | 89 | 1019.4 |
| 20260503060256 | 53 | 84 | 0.0 | 0.0 | 0.00 | 0.00 | 0.00 | 88 | 1019.3 |
| 20260503054743 | 53 | 185 | 0.9 | 0.9 | 0.00 | 0.00 | 0.00 | 87 | 1019.3 |
| 20260503054240 | 53 | 130 | 0.0 | 0.9 | 0.00 | 0.00 | 0.00 | 87 | 1019.5 |
| 20260503053738 | 53 | 132 | 0.0 | 0.9 | 0.00 | 0.00 | 0.00 | 88 | 1019.6 |
| 20260503053237 | 53 | 181 | 0.9 | 1.7 | 0.00 | 0.00 | 0.00 | 88 | 1019.5 |
| 20260503052732 | 53 | 187 | 0.0 | 0.9 | 0.00 | 0.00 | 0.00 | 87 | 1019.6 |
| 20260503052229 | 53 | 179 | 1.7 | 2.6 | 0.00 | 0.00 | 0.00 | 87 | 1019.5 |
| 20260503051724 | 54 | 199 | 1.7 | 2.6 | 0.00 | 0.00 | 0.00 | 87 | 1019.4 |
| 20260503051223 | 54 | 148 | 1.7 | 2.6 | 0.00 | 0.00 | 0.00 | 87 | 1019.6 |
| 20260503050719 | 53 | 169 | 3.5 | 5.2 | 0.00 | 0.00 | 0.00 | 86 | 1019.5 |
| 20260503050215 | 53 | 186 | 1.7 | 1.7 | 0.00 | 0.00 | 0.00 | 86 | 1019.4 |
| 20260503045713 | 53 | 113 | 0.9 | 1.7 | 0.00 | 0.00 | 0.00 | 86 | 1019.4 |
| 20260503045210 | 53 | 208 | 2.6 | 3.5 | 0.00 | 0.00 | 0.00 | 86 | 1019.5 |
| 20260503044707 | 53 | 59 | 1.7 | 1.7 | 0.00 | 0.00 | 0.00 | 87 | 1019.4 |
| 20260503044204 | 53 | 34 | 0.9 | 1.7 | 0.00 | 0.00 | 0.00 | 87 | 1019.4 |
| 20260503043700 | 53 | 256 | 0.9 | 2.6 | 0.00 | 0.00 | 0.00 | 87 | 1019.3 |
| 20260503043158 | 53 | 27 | 0.9 | 1.7 | 0.00 | 0.00 | 0.00 | 87 | 1019.5 |
| 20260503042654 | 53 | 63 | 0.9 | 0.9 | 0.00 | 0.00 | 0.00 | 88 | 1019.5 |
| 20260503042151 | 54 | 20 | 1.7 | 2.6 | 0.00 | 0.00 | 0.00 | 88 | 1019.3 |
| 20260503041647 | 54 | 241 | 1.7 | 2.6 | 0.00 | 0.00 | 0.00 | 87 | 1019.4 |
| 20260503041145 | 54 | 110 | 0.0 | 0.0 | 0.00 | 0.00 | 0.00 | 87 | 1019.2 |
| 20260503040642 | 54 | 207 | 1.7 | 1.7 | 0.00 | 0.00 | 0.00 | 87 | 1019.3 |
| 20260503040140 | 54 | 75 | 0.9 | 0.9 | 0.00 | 0.00 | 0.00 | 86 | 1019.2 |
| 20260503035636 | 54 | 78 | 1.7 | 1.7 | 0.00 | 0.00 | 0.00 | 86 | 1019.1 |
| 20260503035134 | 54 | 269 | 0.9 | 2.6 | 0.00 | 0.00 | 0.00 | 86 | 1019.1 |
| 20260503034631 | 54 | 64 | 0.9 | 1.7 | 0.00 | 0.00 | 0.00 | 85 | 1019.1 |
| 20260503034128 | 54 | 244 | 1.7 | 1.7 | 0.00 | 0.00 | 0.00 | 85 | 1019.0 |
| 20260503033625 | 54 | 179 | 0.0 | 0.0 | 0.00 | 0.00 | 0.00 | 85 | 1019.0 |
| 20260503033122 | 54 | 237 | 1.7 | 3.5 | 0.00 | 0.00 | 0.00 | 86 | 1018.9 |
| 20260503032621 | 54 | 127 | 0.9 | 1.7 | 0.00 | 0.00 | 0.00 | 86 | 1019.0 |
| 20260503032119 | 54 | 119 | 0.0 | 0.9 | 0.00 | 0.00 | 0.00 | 86 | 1019.0 |
| 20260503031616 | 54 | 88 | 0.9 | 0.9 | 0.00 | 0.00 | 0.00 | 86 | 1019.0 |
| 20260503031113 | 54 | 259 | 0.9 | 1.7 | 0.00 | 0.00 | 0.00 | 86 | 1018.7 |
| 20260503030609 | 54 | 232 | 2.6 | 3.5 | 0.00 | 0.00 | 0.00 | 86 | 1018.9 |
| 20260503030106 | 54 | 131 | 0.9 | 0.9 | 0.00 | 0.00 | 0.00 | 86 | 1018.6 |
| 20260503025603 | 54 | 248 | 4.3 | 8.7 | 0.00 | 0.00 | 0.00 | 86 | 1018.6 |
| 20260503025101 | 54 | 203 | 4.3 | 5.2 | 0.00 | 0.00 | 0.00 | 86 | 1018.5 |
| 20260503024557 | 54 | 237 | 4.3 | 6.1 | 0.00 | 0.00 | 0.00 | 86 | 1018.5 |
| 20260503024054 | 54 | 177 | 5.2 | 7.0 | 0.00 | 0.00 | 0.00 | 86 | 1018.4 |
| 20260503023551 | 54 | 74 | 1.7 | 1.7 | 0.00 | 0.00 | 0.00 | 85 | 1018.4 |
| 20260503023048 | 54 | 149 | 1.7 | 3.5 | 0.00 | 0.00 | 0.00 | 85 | 1018.1 |
| 20260503022544 | 54 | 266 | 5.2 | 8.7 | 0.00 | 0.00 | 0.00 | 85 | 1018.3 |
| 20260503022039 | 54 | 250 | 6.1 | 9.6 | 0.00 | 0.00 | 0.00 | 85 | 1018.2 |
| 20260503021536 | 54 | 225 | 3.5 | 5.2 | 0.00 | 0.00 | 0.00 | 84 | 1018.1 |
| 20260503021033 | 55 | 235 | 3.5 | 5.2 | 0.00 | 0.00 | 0.00 | 83 | 1018.4 |
| 20260503020530 | 55 | 238 | 4.3 | 7.0 | 0.00 | 0.00 | 0.00 | 83 | 1018.4 |
| 20260503020027 | 55 | 90 | 5.2 | 7.8 | 0.00 | 0.00 | 0.00 | 82 | 1018.4 |
| 20260503015524 | 55 | 209 | 3.5 | 5.2 | 0.00 | 0.00 | 0.00 | 82 | 1018.5 |
| 20260503015021 | 55 | 38 | 2.6 | 3.5 | 0.00 | 0.00 | 0.00 | 81 | 1018.6 |
| 20260503014517 | 55 | 75 | 1.7 | 2.6 | 0.00 | 0.00 | 0.00 | 81 | 1018.4 |
| 20260503014015 | 56 | 242 | 2.6 | 2.6 | 0.00 | 0.00 | 0.00 | 81 | 1018.6 |
| 20260503013512 | 55 | 244 | 3.5 | 6.1 | 0.00 | 0.00 | 0.00 | 81 | 1018.4 |
| 20260503013009 | 56 | 217 | 4.3 | 7.0 | 0.00 | 0.00 | 0.00 | 80 | 1018.6 |
| 20260503012507 | 56 | 173 | 1.7 | 1.7 | 0.00 | 0.00 | 0.00 | 81 | 1018.5 |
| 20260503012003 | 56 | 254 | 7.0 | 12.2 | 0.00 | 0.00 | 0.00 | 80 | 1018.6 |
| 20260503011459 | 56 | 219 | 3.5 | 8.7 | 0.00 | 0.00 | 0.00 | 80 | 1018.5 |
| 20260503010956 | 56 | 216 | 4.3 | 7.0 | 0.00 | 0.00 | 0.00 | 80 | 1018.8 |
| 20260503010453 | 56 | 265 | 3.5 | 5.2 | 0.00 | 0.00 | 0.00 | 80 | 1018.4 |
| 20260503005951 | 57 | 109 | 0.9 | 1.7 | 0.00 | 0.00 | 0.00 | 80 | 1018.5 |
| 20260503005448 | 57 | 218 | 4.3 | 6.1 | 0.00 | 0.00 | 0.00 | 79 | 1018.8 |
| 20260503004944 | 57 | 221 | 3.5 | 3.5 | 0.00 | 0.00 | 0.00 | 79 | 1018.7 |
| 20260503004441 | 57 | 201 | 1.7 | 1.7 | 0.00 | 0.00 | 0.00 | 79 | 1018.3 |
| 20260503003939 | 57 | 217 | 5.2 | 7.0 | 0.00 | 0.00 | 0.00 | 79 | 1018.6 |
| 20260503003435 | 57 | 232 | 5.2 | 7.0 | 0.00 | 0.00 | 0.00 | 79 | 1018.6 |
| 20260503002932 | 57 | 207 | 2.6 | 3.5 | 0.00 | 0.00 | 0.00 | 79 | 1018.5 |
| 20260503002430 | 57 | 151 | 1.7 | 1.7 | 0.00 | 0.00 | 0.00 | 80 | 1018.7 |
| 20260503001926 | 57 | 255 | 5.2 | 7.8 | 0.00 | 0.00 | 0.00 | 81 | 1018.7 |
| 20260503001422 | 57 | 223 | 1.7 | 2.6 | 0.00 | 0.00 | 0.00 | 80 | 1018.6 |
| 20260503000920 | 57 | 222 | 3.5 | 6.1 | 0.00 | 0.00 | 0.00 | 80 | 1018.6 |
| 20260503000417 | 58 | 229 | 4.3 | 7.0 | 0.00 | 0.00 | 0.00 | 79 | 1018.7 |
| 20260502235914 | 58 | 295 | 1.7 | 2.6 | 0.00 | 0.00 | 0.00 | 79 | 1018.8 |
| 20260502235411 | 57 | 340 | 4.3 | 7.0 | 0.00 | 0.00 | 0.00 | 79 | 1018.6 |
| 20260502234908 | 58 | 226 | 3.5 | 5.2 | 0.00 | 0.00 | 0.00 | 79 | 1018.7 |
| 20260502234405 | 59 | 219 | 1.7 | 2.6 | 0.00 | 0.00 | 0.00 | 78 | 1018.6 |
| 20260502233902 | 58 | 210 | 2.6 | 3.5 | 0.00 | 0.00 | 0.00 | 79 | 1018.8 |
| 20260502233357 | 58 | 236 | 3.5 | 7.8 | 0.00 | 0.00 | 0.00 | 79 | 1018.9 |
| 20260502232855 | 58 | 283 | 3.5 | 5.2 | 0.00 | 0.00 | 0.00 | 79 | 1018.8 |
| 20260502232351 | 59 | 206 | 5.2 | 7.8 | 0.00 | 0.00 | 0.00 | 77 | 1019.0 |
| 20260502231848 | 59 | 226 | 3.5 | 6.1 | 0.00 | 0.00 | 0.00 | 78 | 1019.0 |
| 20260502231346 | 58 | 235 | 1.7 | 1.7 | 0.00 | 0.00 | 0.00 | 79 | 1018.9 |
| 20260502230844 | 59 | 113 | 1.7 | 1.7 | 0.00 | 0.00 | 0.00 | 78 | 1019.1 |
| 20260502230342 | 59 | 219 | 8.7 | 13.0 | 0.00 | 0.00 | 0.00 | 77 | 1019.2 |
| 20260502225838 | 59 | 348 | 3.5 | 5.2 | 0.00 | 0.00 | 0.00 | 77 | 1019.1 |
| 20260502225335 | 59 | 167 | 1.7 | 1.7 | 0.00 | 0.00 | 0.00 | 78 | 1019.2 |
| 20260502224832 | 60 | 219 | 1.7 | 2.6 | 0.00 | 0.00 | 0.00 | 77 | 1019.5 |
| 20260502224328 | 59 | 186 | 3.5 | 5.2 | 0.00 | 0.00 | 0.00 | 78 | 1019.5 |
| 20260502223825 | 60 | 253 | 2.6 | 3.5 | 0.00 | 0.00 | 0.00 | 77 | 1019.6 |
| 20260502223323 | 60 | 192 | 1.7 | 1.7 | 0.00 | 0.00 | 0.00 | 77 | 1019.4 |
| 20260502222821 | 60 | 4 | 2.6 | 3.5 | 0.00 | 0.00 | 0.00 | 77 | 1019.5 |
| 20260502222318 | 60 | 47 | 2.6 | 3.5 | 0.00 | 0.00 | 0.00 | 77 | 1019.7 |
| 20260502221814 | 60 | 200 | 1.7 | 2.6 | 0.00 | 0.00 | 0.00 | 77 | 1019.6 |
| 20260502221310 | 60 | 250 | 3.5 | 5.2 | 0.00 | 0.00 | 0.00 | 76 | 1020.0 |
| 20260502220808 | 59 | 56 | 1.7 | 1.7 | 0.00 | 0.00 | 0.00 | 77 | 1019.8 |
| 20260502220303 | 60 | 8 | 5.2 | 7.0 | 0.00 | 0.00 | 0.00 | 77 | 1020.1 |
| 20260502215800 | 59 | 186 | 1.7 | 2.6 | 0.00 | 0.00 | 0.00 | 78 | 1020.0 |
| 20260502215257 | 60 | 72 | 4.3 | 6.1 | 0.00 | 0.00 | 0.00 | 77 | 1020.1 |
| 20260502214754 | 60 | 265 | 2.6 | 3.5 | 0.00 | 0.00 | 0.00 | 76 | 1020.0 |
| 20260502214251 | 59 | 205 | 1.7 | 2.6 | 0.00 | 0.00 | 0.00 | 77 | 1020.0 |
| 20260502213748 | 60 | 242 | 3.5 | 7.8 | 0.00 | 0.00 | 0.00 | 76 | 1020.2 |
| 20260502213245 | 60 | 201 | 1.7 | 2.6 | 0.00 | 0.00 | 0.00 | 77 | 1020.1 |
| 20260502212744 | 59 | 315 | 1.7 | 3.5 | 0.00 | 0.00 | 0.00 | 79 | 1020.3 |
| 20260502212242 | 60 | 216 | 3.5 | 5.2 | 0.00 | 0.00 | 0.00 | 78 | 1020.1 |
| 20260502211737 | 59 | 186 | 2.6 | 3.5 | 0.00 | 0.00 | 0.00 | 78 | 1020.2 |
| 20260502211234 | 60 | 285 | 3.5 | 7.0 | 0.00 | 0.00 | 0.00 | 77 | 1020.3 |